www.pogodaiklimat.ru

Погода и климат >> Архив погоды >> Россия >> Ростовская область >> Миллерово


ПОГОДА в Миллерово

  • Прогноз погоды в Миллерово
  • Монитор погоды в Миллерово

АРХИВ ПОГОДЫ в Миллерово

Время (UTC), дата Ветер
(напр.,м/с)
 
Видим.   Явления Облачность Т
(С)
Тd
(С)
f
(%)
Тe
(С)
Тes
(С)
Комфортность P
(гПа)
Po
(гПа)
Тmin
(С)
Tmax
(С)
R
(мм)
R24
(мм)
S
(см)
06 16.08 ЮВ 5 10 км 9/5 600 м
[Sc Cc]
+23.6 +11.0 45 +25 +27 комфорт 1009.0 991.2 +20.2
09 16.08 В 2 10 км 10/6 600 м
[Sc Ac trans]
+23.2 +15.0 60 +27 +30 душно 1008.2 990.5
12 16.08 ЮВ 4 10 км 9/9 600 м
[Sc]
+26.1 +16.1 54 +29 +30 жарко 1007.6 990.1
15 16.08 Ю 1 10 км 9/3 600 м
[Cb calv Cc]
+27.4 +16.7 52 +31 +32 душно 1007.1 989.6 +28.4
18 16.08 штиль 0 10 км 8/8 600 м
[Sc]
+21.7 +18.7 83 +27 +27 душно 1007.3 989.5
21 16.08 ЮВ 1 10 км 10/10 600 м
[Sc]
+20.5 +19.2 92 +26 +26 душно 1007.9 990.1
00 17.08 штиль 0 10 км 10/10 600 м
[Sc]
+19.9 +18.7 93 +23 +23 комфорт 1007.8 989.9
03 17.08 СВ 3 10 км слаб. ливневой дождь 10/10 300 м
[Cb calv]
+19.5 +19.5 100 +22 +22 комфорт 1007.4 989.5 +19.5 0.5
06 17.08 штиль 0 10 км {ливн. осадки} 9/8 600 м
[Cb calv Ac trans]
+22.8 +20.1 85 +29 +31 очень
душно
1008.0 990.3
09 17.08 З 1 10 км {ливн. осадки} 10/10 600 м
[Cb calv]
+22.7 +20.4 87 +29 +29 очень
душно
1008.2 990.5
12 17.08 штиль 0 10 км {ливн. осадки} 9/5 600 м
[Cb calv Ac trans]
+24.6 +17.1 63 +28 +32 душно 1008.0 990.4
15 17.08 ЮЗ 1 10 км 5/5 1000 м
[Cu med, cong]
+24.2 +18.7 71 +29 +29 душно 1008.2 990.5 +26.1 0.0
18 17.08 штиль 0 10 км ясно +18.9 +18.6 98 +20 +20 1009.3 991.3
21 17.08 штиль 0 10 км ясно +17.3 +17.3 100 +17 +17 1009.7 991.6
00 18.08 В 1 10 км ясно +17.6 +17.6 100 +19 +19 1010.0 991.9
03 18.08 штиль 0 10 км 8/8 600 м
[Cb calv]
+19.0 +19.0 100 +21 +21 комфорт 1010.0 992.0 +16.0
06 18.08 В 1 10 км 10/3 600 м
[Cu Sc Ac As Ci sp]
+23.2 +19.6 80 +30 +33 очень
душно
1010.5 992.8
09 18.08 ЮВ 3 10 км 10/4 600 м
[Cb calv Ci sp]
+27.1 +17.3 55 +31 +37 душно 1010.1 992.6
12 18.08 штиль 0 10 км гроза, ливневой дождь 10/9 600 м
[Cb calv Ci sp]
+21.2 +21.2 100 +27 +28 душно 1010.9 993.0
15 18.08 штиль 0 10 км в посл. час гроза {ливн. осадки} 10/8 600 м
[Cb calv Ac As]
+22.5 +21.5 94 +30 +30 очень
душно
1011.7 993.9 +27.6 4
18 18.08 СЗ 1 10 км {гроза, ливн. осадки} 8/0
[Ac As]
+21.2 +21.2 100 +27 +27 душно 1012.6 994.7
21 18.08 СВ 3 10 км 8/0
[Ac As]
+20.7 +20.7 100 +26 +26 душно 1012.8 994.9
00 19.08 З 2
{10}
10 км слаб. ливневой дождь 10/10 600 м
[Cb calv]
+17.9 +17.9 100 +18 +18 1014.8 996.6
03 19.08 С 1 10 км {ливн. осадки} 10/0
[Ac As Ci fib]
+19.0 +19.0 100 +22 +22 комфорт 1014.0 996.0 +17.8 2
06 19.08 С 3 10 км {ливн. осадки} 8/5 600 м
[Cu med, cong Ci fib]
+24.0 +21.5 86 +31 +33 очень
душно
1015.2 997.5
09 19.08 С 2 10 км 10/9 600 м
[Cb calv Ac und]
+23.7 +21.4 87 +30 +31 очень
душно
1016.2 998.4
12 19.08 С 3 10 км {ливн. осадки} 9/6 600 м
[Cb calv Ac As]
+26.9 +22.0 75 +35 +36 очень
душно
1016.3 998.7
15 19.08 С 3 10 км 3/3 600 м
[Cu med, cong]
+26.0 +21.4 76 +33 +34 очень
душно
1016.8 999.2 +27.3 0.8
18 19.08 С 3 10 км ясно +21.3 +21.0 98 +27 +27 душно 1017.9 1000.0
21 19.08 С 3 10 км ясно +20.1 +19.4 96 +24 +24 комфорт 1018.5 1000.4
00 20.08 С 3 10 км ясно +18.5 +18.3 99 +20 +20 1018.5 1000.3
03 20.08 С 3 10 км ясно +18.3 +17.7 96 +19 +19 1018.9 1000.7 +17.8
06 20.08 С 3 10 км 1/0
[Ci fib]
+24.3 +19.4 74 +29 +35 душно 1019.2 1001.4
09 20.08 С 5 10 км ясно +28.3 +20.3 62 +35 +42 очень
душно
1019.1 1001.5
12 20.08 С 4 10 км ясно +30.3 +16.7 44 +34 +40 очень
душно
1018.3 1000.8
15 20.08 С 4 10 км ясно +27.9 +16.2 49 +31 +32 душно 1018.9 1001.2 +30.6
18 20.08 С 3 10 км ясно +22.1 +17.2 74 +27 +27 душно 1019.8 1001.8
21 20.08 С 4 10 км ясно +20.8 +14.9 69 +24 +24 комфорт 1020.0 1001.9
00 21.08 С 4 10 км ясно +19.7 +16.3 81 +22 +22 комфорт 1020.2 1002.0
03 21.08 С 5 10 км ясно +18.6 +16.0 85 +19 +19 1020.2 1002.0 +18.0
06 21.08 СВ 6-10
{11}
10 км ясно +23.8 +16.8 65 +27 +30 жарко 1019.9 1002.0
09 21.08 С 5
{11}
10 км ясно +28.4 +15.7 46 +31 +39 душно 1018.9 1001.3
12 21.08 С 5
{10}
10 км 1/0
[Ci fib]
+30.4 +13.0 34 +31 +36 жарко 1017.7 1000.2
15 21.08 С 4 10 км 1/0
[Ci fib]
+28.3 +14.2 42 +30 +31 жарко 1017.3 999.7 +30.4
18 21.08 С 4 10 км ясно +23.3 +14.8 59 +27 +27 душно 1017.7 999.8
21 21.08 СВ 5 10 км ясно +22.6 +15.4 64 +27 +27 душно 1017.3 999.4
00 22.08 СВ 5 10 км ясно +21.9 +15.0 65 +25 +25 комфорт 1017.3 999.3
03 22.08 СВ 3 10 км ясно +20.2 +15.0 72 +23 +23 комфорт 1018.0 999.9 +19.9
06 22.08 СВ 5 10 км ясно +24.9 +15.8 57 +28 +32 жарко 1017.9 1000.2
09 22.08 СВ 6
{10}
10 км ясно +30.0 +14.1 38 +32 +37 жарко 1017.3 999.8
12 22.08 СВ 4
{10}
10 км ясно +31.8 +13.8 34 +33 +39 жарко 1016.5 999.2
15 22.08 С 5 10 км ясно +29.5 +14.8 41 +32 +32 душно 1016.4 998.9 +32.0
18 22.08 С 4 10 км ясно +24.5 +15.0 55 +27 +27 жарко 1017.7 999.9
21 22.08 СВ 4 10 км ясно +22.4 +14.5 61 +26 +26 жарко 1018.0 1000.0
00 23.08 С 4 10 км ясно +20.6 +14.8 69 +23 +23 комфорт 1017.8 999.7
03 23.08 СВ 5 10 км 9/0
[Ci]
+20.0 +14.7 72 +22 +22 комфорт 1018.3 1000.2 +20.0

 

Местоположение метеостанции Миллерово (Ростовская область, Россия): широта 48.93 долгота 40.38 высота над уровнем моря 155 м.

В архиве по умолчанию представлена погода в Миллерово за последнюю неделю. Архивные данные за месяц целиком и за предыдущие месяцы, начиная с января 2011 года, Вы можете получить, выбрав интересующий диапазон дат из раскрывающегося списка и нажав кнопку "Ввод!".


*Определитесь, кто Вы:
робот инопланетянин человек

Внимание! Время в таблицах - всемирное. Для получения местного времени необходимо прибавить поправку, которая равна 3 ч.

Смотрите также архив погоды в соседних городах и на ближайших метеорологических станциях:

Погода в Чертково (Ростовская область, Россия) (52 км)
Погода в Беловодске (Луганская область, Украина) (67 км)
Погода в Каменск-Шахтинском (Ростовская область, Россия) (70 км)
Погода в Белой Калитве (Ростовская область, Россия) (84 км)
Погода в Боковской (Ростовская область, Россия) (110 км)
Погода в Казанской (Ростовская область, Россия) (112 км)
Погода в Богучаре (Воронежская область, Россия) (112 км)
Погода в Морозовске (Ростовская область, Россия) (127 км)
Погода в Шахтах (Ростовская область, Россия) (137 км)
Погода в Константиновске (Ростовская область, Россия) (159 км)

Пояснения к столбцам:

Ветер - указаны скорость ветра в м/с - средняя за 10 мин, порывы в срок и между сроками (в фигурных скобках) и направление, откуда дует ветер: С - северный, СВ - северо-восточный, В - восточный, ЮВ - юго-восточный, Ю - южный, ЮЗ - юго-западный, З - западный, СЗ - северо-западный.
Видимость - горизонтальная дальность видимости в метрах или километрах. При видимости от 1 до 10 км при отсутствии осадков обычно наблюдается дымка, при ухудшении видимости до 1 км и менее - туман. В сухую погоду видимость может ухудшаться дымом, пылью или мглою.
Явления - указаны атмосферные явления, наблюдавшиеся в срок или в последний час перед сроком; фигурными скобками обозначены явления, наблюдавшиеся между сроками (за 1-3 часа до срока); квадратными скобками обозначены град или гололедные отложения с указанием их диаметра в мм.
Облачность - указаны через наклонную черту общая и нижняя облачность в баллах и высота нижней границы облаков в метрах; квадратными скобками обозначены формы облаков: Ci - перистые, Cs - перисто-слоистые, Cc - перисто-кучевые, Ac - высококучевые, As - высокослоистые, Sc - слоисто-кучевые, Ns - слоисто-дождевые, Cu - кучевые, Cb - кучево-дождевые. Подробнее классификацию облаков см. в Атласе облаков (PDF).
T - Температура воздуха - температура, измеренная на высоте 2 м над землей.
Td - Температура точки росы - температура, при понижении до которой содержащийся в воздухе водяной пар достигнет насыщения.
f - Относительная влажность воздуха - влажноcть воздуха, измеренная на высоте 2 м над землей.
Te - Эффективная температура - температура, которую ощущает одетый по сезону человек в тени. Характеристика душности погоды. При расчете учитывается влияние влажности воздуха и скорости ветра на теплоощущения человека.
Tes - Эффективная температура на солнце - температура, которую ощущает человек, с поправкой на солнечный нагрев. Характеристика знойности погоды. Зависит от высоты солнца над горизонтом, облачности и скорости ветра. Ночью, в пасмурную погоду, а также при ветре 12 м/с и более поправка равна нулю.
P - Атмосферное давление - приведенное к уровню моря атмосферное давление.
Po - Атмосферное давление - измеренное на уровне метеостанции атмосферное давление.
Tmin - Минимальная температура - минимум температуры воздуха на высоте 2 м над землей.
Tmax - Максимальная температура - максимум температуры воздуха на высоте 2 м над землей.
R - Количество осадков - Количество выпавших осадков за период времени, мм. При наведении курсора мыши на число - период времени, за который выпало указанное количество осадков.
R24 - Количество осадков - Количество выпавших осадков за 24 часа, мм.
S - Снежный покров - Высота снежного покрова, см. При наведении курсора мыши на число - состояние снежного покрова и степень покрытия местности в баллах.